Location: Newark
(45.0667°N, 8.1000°E)
Time: 11:28:25
(UTC+00:00)

X-37B - Visible Passes

Search period start: 20 September 2020 00:00
Search period end: 30 September 2020 00:00
Orbit: 386 x 387 km, 45.0° (Epoch: 18 September)

Date Brightness Start Highest point End Pass type
(mag) Time Alt. Az. Time Alt. Az. Time Alt. Az.
20 Sep 1.7 03:05:33 42° E 03:05:33 42° E 03:07:48 10° E visible
20 Sep 1.0 04:38:04 10° W 04:41:11 50° SSW 04:44:16 10° ESE visible
21 Sep 0.5 03:42:02 52° WSW 03:42:39 70° SSW 03:45:49 10° ESE visible
22 Sep 3.3 02:46:20 18° E 02:46:20 18° E 02:47:16 10° E visible
22 Sep 1.5 04:18:37 17° W 04:20:32 33° SSW 04:23:26 10° SE visible
23 Sep 1.7 03:23:00 35° SE 03:23:00 35° SE 03:25:09 10° ESE visible
24 Sep 2.1 03:59:51 21° SSW 03:59:51 21° SSW 04:02:20 10° SSE visible
